Regional Weather Roundup
Issued by NWS Northern Indiana

Home | Current Version | Previous Version | Text Only | Print | Product List | Glossary On
Versions: 1 2 3 4 5 6 7 8 9 10 11 12 13 14 15 16 17 18 19 20 21 22 23 24 25 26 27 28 29 30 31 32 33 34 35 36 37 38 39 40 41 42 43 44 45 46 47 48 49 50
000
ASUS43 KIWX 091410
RWRIWX

KIWX WEATHER ROUNDUP
NATIONAL WEATHER SERVICE NORTHERN INDIANA
900 AM EST TUE FEB 09 2016

NOTE: "FAIR" INDICATES FEW OR NO CLOUDS BELOW 12,000 FEET WITH NO
SIGNIFICANT WEATHER AND/OR OBSTRUCTIONS TO VISIBILITY.

* THESE STATIONS ARE NOT UNDER NWS QUALITY CONTROL. THEY ALSO MAY NOT
  REPORT WEATHER SUCH AS PRECIPITATION OR FOG.

INZ001>027-091500-
NORTHERN INDIANA

CITY           SKY/WX    TMP DP  RH WIND       PRES   REMARKS
GARY*          FLURRIES  21  12  68 W17       29.79R WCI   7
VALPARAISO     LGT SNOW  21  17  84 NW14      29.75R WCI   8
MICHIGAN CITY* LGT SNOW  27  23  86 NW8G21    29.75R WCI  18
LAPORTE*       LGT SNOW  27  27 100 NW12      29.73R WCI  16
KNOX*          CLOUDY    21  18  86 W10       29.74R WCI  10
SOUTH BEND     FLURRIES  26  22  84 NW13G24   29.71R WCI  15
ELKHART*         N/A     28  23  80 NW13      29.69  WCI  18
GOSHEN         CLOUDY    28  24  85 NW14      29.67R WCI  17
MONTICELLO*    LGT SNOW  20  15  81 W13       29.77R WCI   7
LOGANSPORT*    CLOUDY    21  14  73 W14G23    29.76R WCI   8
ROCHESTER*     LGT SNOW  23  18  80 W14       29.72R WCI  11
WARSAW*        FLURRIES  23  19  86 W15       29.69R WCI  10
ANGOLA*        CLOUDY    28  27  93 NW13      29.62R WCI  18
FORT WAYNE     FLURRIES  26  19  74 W16       29.68R WCI  14
HUNTINGTON*    LGT SNOW  22  15  76 W10G22    29.70R WCI  11
PERU/GRISSOM   LGT SNOW  21  18  86 W15       29.72R FOG     WCI   8
MARION*        CLOUDY    21  13  71 W18       29.73R HAZE    WCI   6

$$
INZ028>050-091500-
CENTRAL INDIANA

CITY           SKY/WX    TMP DP  RH WIND       PRES   REMARKS
LAFAYETTE      FLURRIES  20  15  81 W14       29.79S WCI   7
KOKOMO*        CLOUDY    21  16  79 W18       29.74R WCI   6
MUNCIE*        LGT SNOW  22  17  81 W14       29.72R VSB 1   WCI   9
INDIANAPOLIS   LGT SNOW  20  15  81 W14       29.77R WCI   7

$$
MIZ043>046-050>051-056>058-064>065-071>073-077>080-091500-
SOUTHWEST LOWER MICHIGAN

CITY           SKY/WX    TMP DP  RH WIND       PRES   REMARKS
BATTLE CREEK   CLOUDY    26  21  81 NW12G21   29.64R WCI  16
BENTON HARBOR  LGT SNOW  27  21  78 NW9G20    29.72R VSB 1   WCI  18
COLDWATER*     CLOUDY    28  26  91 NW8       29.62R WCI  20
HILLSDALE*     CLOUDY    29  27  92 NW16      29.59R WCI  17
HOLLAND        CLOUDY    26  20  77 NW7       29.69R WCI  18
GRAND RAPIDS   CLOUDY    26  20  77 NW16G25   29.66R WCI  14
KALAMAZOO      CLOUDY    27  21  78 NW13      29.65R WCI  16
STURGIS*       CLOUDY    26  22  83 NW14G23   29.64R WCI  15
THREE RIVERS*  CLOUDY    28  24  86 NW14      29.66R WCI  16

$$
OHZ001>008-015>018-024>025-091500-
NORTHWEST OHIO

CITY           SKY/WX    TMP DP  RH WIND       PRES   REMARKS
DEFIANCE       CLOUDY    28  24  85 W7        29.64R WCI  21
FINDLAY        CLOUDY    27  22  81 W16G28    29.62S WCI  15
TOLEDO EXPRESS LGT SNOW  28  26  92 W14       29.60S FOG     WCI  17
TOLEDO METCALF LGT SNOW  29  26  89 SW12      29.61S VSB 3/4 WCI  19
LIMA           CLOUDY    25  21  85 W21       29.65R WCI  11

$$
AND FOR LAKE MICHIGAN COASTAL AND OPEN LAKE BUOY OBSERVATIONS

STATION/POSITION TEMP    WIND        PRES    VSBY  WAVE
                 AIR SEA DIR/SP/G                  HT/PER
                 (F)     (DEG/KT/KT) (MB)    (MI)  (FT/S)
CALUMET HARBOR    18     290/ 11/ 15 1007.9R
MICHIGAN CITY     26     280/ 24/ 26   N/A
BURNS HARBOR      23     310/ 20     1008.1R
SAINT JOSEPH      27     310/ 19/ 22 1006.8R

$$
&&



USA.gov is the U.S. government's official web portal to all federal, state and local government web resources and services.